TimePDT,TemperatureF,Dew PointF,Humidity,Sea Level PressureIn,VisibilityMPH,Wind Direction,Wind SpeedMPH,Gust SpeedMPH,PrecipitationIn,Events,Conditions,WindDirDegrees,DateUTC
12:53 AM,66.9,59.0,76,30.10,10.0,Calm,Calm,-,N/A,,Overcast,0,2013-08-30 07:53:00
1:53 AM,68.0,59.0,73,30.09,10.0,Calm,Calm,-,N/A,,Overcast,0,2013-08-30 08:53:00
2:53 AM,66.0,59.0,78,30.09,10.0,Calm,Calm,-,N/A,,Overcast,0,2013-08-30 09:53:00
3:53 AM,64.9,57.9,78,30.10,10.0,Calm,Calm,-,N/A,,Mostly Cloudy,0,2013-08-30 10:53:00
4:53 AM,64.9,57.9,78,30.10,10.0,Calm,Calm,-,N/A,,Overcast,0,2013-08-30 11:53:00
5:53 AM,64.9,57.9,78,30.11,10.0,Calm,Calm,-,N/A,,Overcast,0,2013-08-30 12:53:00
6:53 AM,64.0,57.9,80,30.12,10.0,Calm,Calm,-,N/A,,Overcast,0,2013-08-30 13:53:00
7:53 AM,66.9,57.9,73,30.13,10.0,Calm,Calm,-,N/A,,Mostly Cloudy,0,2013-08-30 14:53:00
8:53 AM,69.1,59.0,70,30.14,10.0,Calm,Calm,-,N/A,,Overcast,0,2013-08-30 15:53:00
9:53 AM,73.0,60.1,64,30.12,10.0,North,8.1,-,N/A,,Mostly Cloudy,360,2013-08-30 16:53:00
10:53 AM,75.0,60.1,60,30.12,10.0,ENE,5.8,-,N/A,,Mostly Cloudy,60,2013-08-30 17:53:00
11:53 AM,78.1,59.0,52,30.10,10.0,NNW,4.6,-,N/A,,Overcast,330,2013-08-30 18:53:00
12:53 PM,79.0,57.0,47,30.08,10.0,Calm,Calm,-,N/A,,Partly Cloudy,0,2013-08-30 19:53:00
1:53 PM,82.0,57.0,42,30.06,10.0,NNW,9.2,-,N/A,,Clear,340,2013-08-30 20:53:00
2:53 PM,82.0,55.0,39,30.04,10.0,SW,4.6,-,N/A,,Clear,220,2013-08-30 21:53:00
3:53 PM,86.0,53.1,32,30.01,10.0,Calm,Calm,-,N/A,,Clear,0,2013-08-30 22:53:00
4:53 PM,86.0,54.0,33,30.00,10.0,North,10.4,-,N/A,,Clear,350,2013-08-30 23:53:00
5:53 PM,84.9,55.0,36,29.99,10.0,NW,8.1,-,N/A,,Clear,320,2013-08-31 00:53:00
6:53 PM,82.0,55.9,41,29.99,10.0,NW,8.1,-,N/A,,Clear,310,2013-08-31 01:53:00
7:53 PM,79.0,57.9,48,30.00,10.0,NW,8.1,-,N/A,,Clear,320,2013-08-31 02:53:00
8:53 PM,75.0,60.1,60,30.02,10.0,NW,4.6,-,N/A,,Clear,310,2013-08-31 03:53:00
9:53 PM,73.0,59.0,61,30.02,10.0,Calm,Calm,-,N/A,,Clear,0,2013-08-31 04:53:00
10:53 PM,71.1,57.9,63,30.02,10.0,North,3.5,-,N/A,,Clear,350,2013-08-31 05:53:00
11:53 PM,66.9,57.9,73,30.02,10.0,Calm,Calm,-,N/A,,Clear,0,2013-08-31 06:53:00